[[{"header":{"parameterUnit":"m.s-1","parameterCategory":1,"la1":30.2991,"la2":30.254,"lo1":-89.0895,"lo2":-89.0444,"dy":0.0017,"dx":0.0017,"nx":28,"ny":28,"refTime":"2025-08-03T21:00:00:Z","depth":0,"parameterNumber":2,"parameterNumberName":"U-component_of_WINDS"},"data":[0,0,0,0,0,0,0,0,0,0,0,0,0,0,0,0,0,0,0,0,0,0,0,0,0,0,0,0,0,0,0,0,0,0,0,0,0,0,0,0,0,0,0,0,0,0,0,0,0,0,0,0,0,0,0,0,0,0,-0.5452,-0.5451,0,-0.5438,-0.5438,-0.5437,-0.5412,-0.5412,-0.5411,-0.5411,-0.5397,-0.5397,-0.5397,0,0,0,0,0,0,0,0,0,0,0,0,0,-0.5457,-0.5457,-0.5452,-0.5451,-0.5451,-0.5438,-0.5438,-0.5437,-0.5412,-0.5412,-0.5411,-0.541,-0.5397,-0.5397,-0.5397,0,0,0,0,0,0,0,0,0,0,0,0,0,-0.545,-0.5457,-0.5452,-0.5437,-0.5435,-0.5438,-0.5438,-0.5437,-0.5412,-0.5411,-0.5411,-0.541,-0.5397,-0.5397,-0.5397,-0.5413,0,0,-0.5398,-0.5398,0,0,0,0,0,0,0,0,-0.545,-0.545,-0.5439,-0.5438,-0.5436,-0.5426,-0.5434,-0.5429,-0.5412,-0.5421,-0.5411,-0.541,-0.5407,-0.5406,-0.5406,-0.5412,-0.5412,-0.5398,-0.5398,-0.5398,-0.5398,0,0,0,0,0,0,0,-0.5451,-0.545,-0.5446,-0.5439,-0.5437,-0.5431,-0.5429,-0.5433,-0.5418,-0.542,-0.5418,-0.5417,-0.5406,-0.5405,-0.5405,-0.5411,-0.5398,-0.5398,-0.5398,-0.5398,-0.543,-0.5431,0,0,0,0,0,0,-0.5453,-0.5451,-0.5447,-0.5446,-0.5442,-0.5432,-0.543,-0.543,-0.5418,-0.5416,-0.5418,-0.5416,-0.5406,-0.5405,-0.5404,-0.5422,-0.5398,-0.5398,-0.5398,-0.543,-0.5431,-0.5431,0,0,0,0,0,0,-0.5453,-0.5453,-0.5447,-0.5448,-0.5446,-0.5432,-0.5433,-0.543,-0.5429,-0.5416,-0.5414,-0.542,-0.5405,-0.5404,-0.5411,-0.5421,-0.5398,-0.5398,-0.5429,-0.543,-0.5431,-0.5458,0,0,0,0,0,0,-0.5454,-0.5453,-0.5459,-0.5448,-0.5446,-0.5454,-0.5433,-0.543,-0.5429,-0.5427,-0.5417,-0.5415,-0.5404,-0.5411,-0.5411,-0.5421,-0.5398,-0.5428,-0.5429,-0.5431,-0.5456,-0.5459,-0.5463,0,0,0,0,0,-0.5454,-0.5467,-0.5459,-0.5459,-0.5453,-0.5454,-0.5454,-0.5441,-0.543,-0.5436,-0.5428,-0.5415,-0.542,-0.5412,-0.5412,-0.5422,-0.5427,-0.5429,-0.5431,-0.5454,-0.5459,-0.5463,0,0,0,0,0,0,-0.548,-0.5465,-0.5457,-0.5467,-0.5462,-0.545,-0.5457,-0.5446,-0.5444,-0.5442,-0.5426,-0.5424,-0.5433,-0.5428,-0.5419,-0.5437,-0.5422,-0.5423,-0.544,-0.5444,-0.5447,-0.5448,-0.5398,0,0,0,0,0,-0.5487,-0.5489,-0.5476,-0.5486,-0.5484,-0.5471,-0.5471,-0.5461,-0.5456,-0.5454,-0.5446,-0.5442,-0.5442,-0.5443,-0.5442,-0.5455,-0.5452,-0.5462,-0.5465,-0.5468,-0.547,-0.5477,-0.5481,-0.5437,-0.5437,-0.5437,0,0,-0.5501,-0.5493,-0.5495,-0.5491,-0.5486,-0.5489,-0.5469,-0.5473,-0.5475,-0.5454,-0.546,-0.5455,-0.5448,-0.5458,-0.5462,-0.5454,-0.5482,-0.547,-0.5473,-0.5473,-0.5479,-0.5483,-0.5487,-0.5438,-0.5438,-0.5438,0,0,-0.5528,-0.5522,-0.553,-0.5526,-0.5519,-0.551,-0.5512,-0.5502,-0.5497,-0.5503,-0.5488,-0.549,-0.5491,-0.5487,-0.5485,-0.5511,-0.55,-0.5511,-0.553,-0.5536,-0.554,-0.5543,-0.5552,-0.5556,-0.5513,-0.5513,-0.5513,0,-0.5547,-0.555,-0.5536,-0.554,-0.5539,-0.552,-0.5528,-0.5525,-0.5518,-0.5518,-0.5509,-0.551,-0.5504,-0.5513,-0.5519,-0.5518,-0.552,-0.5512,-0.554,-0.5543,-0.5546,-0.5555,-0.5558,-0.5515,-0.5515,-0.5514,-0.5514,0,-0.5573,-0.5576,-0.5583,-0.5577,-0.5576,-0.5582,-0.5569,-0.557,-0.5561,-0.5553,-0.5559,-0.5552,-0.555,-0.5551,-0.5542,-0.5559,-0.5554,-0.5543,-0.5528,-0.5552,-0.556,-0.5563,-0.5517,-0.5516,-0.5516,-0.5516,0,0,-0.5616,-0.5602,-0.5605,-0.5602,-0.5593,-0.5595,-0.56,-0.5598,-0.56,-0.5596,-0.56,-0.5601,-0.5591,-0.5589,-0.5579,-0.5585,-0.5606,-0.5573,-0.5573,-0.558,-0.5625,-0.5633,-0.5637,-0.5599,-0.5599,-0.56,-0.5625,0,-0.5642,-0.565,-0.5638,-0.5649,-0.5651,-0.5634,-0.5638,-0.5634,-0.5627,-0.5627,-0.562,-0.5621,-0.5607,-0.5606,-0.5611,-0.5603,-0.5615,-0.5601,-0.5603,-0.5603,-0.5605,-0.5641,-0.565,-0.5675,-0.5628,-0.5629,-0.5629,0,-0.5672,-0.567,-0.5682,-0.5672,-0.5672,-0.5677,-0.5674,-0.5675,-0.5669,-0.5664,-0.5662,-0.565,-0.5655,-0.564,-0.5647,-0.5637,-0.5637,-0.5634,-0.5634,-0.5634,-0.5618,-0.5642,-0.5682,-0.5686,-0.5634,-0.5634,-0.5633,0,-0.5703,-0.5703,-0.5709,-0.5707,-0.5696,-0.57,-0.5696,-0.5689,-0.5689,-0.5686,-0.5686,-0.5684,-0.5683,-0.5682,-0.567,-0.5661,-0.5679,-0.5663,-0.5674,-0.5675,-0.5679,-0.5679,-0.5719,-0.5679,-0.5679,-0.5679,-0.5679,0,-0.5733,-0.5741,-0.5723,-0.5727,-0.5736,-0.5721,-0.573,-0.5724,-0.5718,-0.5721,-0.5706,-0.5709,-0.5693,-0.5695,-0.5686,-0.5693,-0.5692,-0.5688,-0.5686,-0.569,-0.569,-0.569,-0.5688,-0.568,-0.568,-0.5679,-0.5679,0,-0.5769,-0.5757,-0.5763,-0.5752,-0.575,-0.5756,-0.5747,-0.5751,-0.5743,-0.5746,-0.5747,-0.5734,-0.5735,-0.5723,-0.5722,-0.5716,-0.5727,-0.5722,-0.5729,-0.5728,-0.574,-0.5739,-0.5782,-0.5787,-0.5743,-0.5743,-0.5744,0,-0.5788,-0.5794,-0.5784,-0.5784,-0.5781,-0.5782,-0.5782,-0.5768,-0.5768,-0.5762,-0.5766,-0.5766,-0.5765,-0.5767,-0.5758,-0.5757,-0.5752,-0.5767,-0.5751,-0.5755,-0.5752,-0.5752,-0.5753,-0.577,-0.577,-0.5771,-0.5771,0,-0.5825,-0.5819,-0.5819,-0.5817,-0.5816,-0.5814,-0.5811,-0.5812,-0.5797,-0.5798,-0.5799,-0.5798,-0.5797,-0.5797,-0.5794,-0.579,-0.5778,-0.5776,-0.5779,-0.5783,-0.5787,-0.5785,-0.5738,-0.5775,-0.5775,-0.5775,-0.5774,-0.5774,-0.5854,-0.5858,-0.5851,-0.5851,-0.5847,-0.5845,-0.5848,-0.584,-0.584,-0.5838,-0.583,-0.5832,-0.5826,-0.5821,-0.5818,-0.582,-0.5812,-0.5816,-0.5817,-0.5818,-0.5821,-0.5787,-0.5819,-0.5819,-0.5819,-0.5819,-0.5819,0,-0.589,-0.5884,-0.5885,-0.5881,-0.5881,-0.587,-0.5866,-0.5867,-0.5869,-0.5864,-0.5863,-0.5865,-0.5864,-0.5855,-0.5854,-0.5857,-0.5852,-0.5858,-0.5857,-0.5857,-0.5827,-0.5825,-0.5862,-0.5862,-0.5862,-0.5862,-0.5862,-0.5862,-0.5908,-0.5915,-0.5908,-0.5913,-0.5908,-0.591,-0.5908,-0.5906,-0.5902,-0.5904,-0.5904,-0.5898,-0.5891,-0.589,-0.5889,-0.5887,-0.5887,-0.5894,-0.589,-0.5863,-0.5859,-0.5855,-0.5853,-0.5894,-0.5895,-0.5919,-0.5919,-0.592]},{"header":{"parameterUnit":"m.s-1","parameterCategory":1,"la1":30.2991,"la2":30.254,"lo1":-89.0895,"lo2":-89.0444,"dy":0.0017,"dx":0.0017,"nx":28,"ny":28,"refTime":"2025-08-03T21:00:00:Z","depth":0,"parameterNumber":3,"parameterNumberName":"V-component_of_WINDS"},"data":[0,0,0,0,0,0,0,0,0,0,0,0,0,0,0,0,0,0,0,0,0,0,0,0,0,0,0,0,0,0,0,0,0,0,0,0,0,0,0,0,0,0,0,0,0,0,0,0,0,0,0,0,0,0,0,0,0,0,0.3371,0.3372,0,0.3419,0.342,0.342,0.3398,0.3396,0.3395,0.3394,0.3445,0.3447,0.345,0,0,0,0,0,0,0,0,0,0,0,0,0,0.3261,0.3264,0.3371,0.3372,0.3372,0.3419,0.342,0.3421,0.3398,0.3396,0.3395,0.3394,0.3444,0.3447,0.345,0,0,0,0,0,0,0,0,0,0,0,0,0,0.3309,0.3264,0.3371,0.3367,0.3367,0.3419,0.342,0.3421,0.3398,0.3396,0.3395,0.3393,0.3443,0.3447,0.345,0.351,0,0,0.3462,0.3463,0,0,0,0,0,0,0,0,0.3307,0.3313,0.3367,0.3367,0.3367,0.3401,0.34,0.3451,0.3399,0.3386,0.3394,0.3392,0.3432,0.3436,0.3449,0.3513,0.3515,0.3462,0.3464,0.3466,0.3467,0,0,0,0,0,0,0,0.3303,0.3311,0.339,0.3367,0.3368,0.3363,0.3368,0.3409,0.3419,0.3387,0.3386,0.3392,0.3431,0.3446,0.345,0.3516,0.3462,0.3465,0.3468,0.3469,0.3632,0.3634,0,0,0,0,0,0,0.33,0.3309,0.3389,0.3392,0.3332,0.3366,0.3372,0.3392,0.3418,0.342,0.3393,0.339,0.344,0.3446,0.3452,0.3525,0.3466,0.3469,0.3472,0.363,0.3632,0.3634,0,0,0,0,0,0,0.3298,0.3307,0.3387,0.335,0.3359,0.337,0.3393,0.3394,0.3408,0.3423,0.3424,0.3406,0.3439,0.3447,0.3496,0.3526,0.3471,0.3475,0.3627,0.363,0.3633,0.367,0,0,0,0,0,0,0.3295,0.3307,0.3329,0.335,0.3362,0.3429,0.3395,0.3396,0.3414,0.3411,0.3435,0.3437,0.3438,0.3491,0.35,0.353,0.3477,0.3624,0.3629,0.3632,0.3666,0.3674,0.368,0,0,0,0,0,0.3291,0.3337,0.333,0.334,0.339,0.3431,0.3438,0.3437,0.3417,0.344,0.3449,0.3437,0.3521,0.3496,0.3506,0.3538,0.3623,0.3627,0.3632,0.3663,0.3672,0.368,0,0,0,0,0,0,0.3319,0.334,0.3332,0.3387,0.3408,0.3427,0.3456,0.3447,0.3474,0.347,0.3469,0.3475,0.3526,0.3537,0.3508,0.3598,0.3569,0.3576,0.3589,0.3598,0.3605,0.3602,0.3481,0,0,0,0,0,0.3332,0.3363,0.338,0.3427,0.3438,0.3445,0.3463,0.3461,0.3483,0.3491,0.3504,0.3526,0.3558,0.3578,0.3608,0.3668,0.3673,0.3695,0.3702,0.3708,0.3714,0.3747,0.3757,0.365,0.365,0.365,0,0,0.3358,0.3374,0.3394,0.3433,0.3449,0.3482,0.3453,0.3489,0.3514,0.3497,0.3544,0.3555,0.3579,0.3634,0.3659,0.3645,0.3745,0.3714,0.3718,0.3721,0.3753,0.3763,0.3772,0.3653,0.3652,0.3652,0,0,0.3424,0.3438,0.3479,0.3495,0.3519,0.3524,0.3534,0.3556,0.3562,0.361,0.3598,0.3628,0.3682,0.37,0.3716,0.379,0.3779,0.38,0.3837,0.387,0.3878,0.3886,0.3913,0.3922,0.3805,0.3806,0.3806,0,0.3454,0.3503,0.3501,0.3539,0.3557,0.3543,0.3585,0.3601,0.3634,0.3647,0.3631,0.3699,0.3714,0.3774,0.3792,0.3805,0.3817,0.3797,0.3877,0.3885,0.3892,0.3917,0.3927,0.3808,0.3808,0.3807,0.3807,0,0.3539,0.3573,0.3604,0.3636,0.3657,0.3697,0.3702,0.3724,0.3721,0.3728,0.3777,0.3795,0.3828,0.3842,0.3839,0.3902,0.3892,0.3877,0.3847,0.3904,0.3928,0.3938,0.3811,0.381,0.381,0.3809,0,0,0.3623,0.3654,0.3665,0.368,0.3706,0.3733,0.3772,0.3805,0.3824,0.3848,0.3882,0.3928,0.3914,0.3933,0.3932,0.396,0.4018,0.3941,0.3942,0.3955,0.4089,0.4101,0.4112,0.4011,0.4013,0.4015,0.4087,0,0.369,0.3759,0.3759,0.3823,0.3855,0.3843,0.3878,0.3898,0.3906,0.3935,0.3944,0.3977,0.3956,0.3967,0.3995,0.4005,0.4045,0.4,0.4043,0.4045,0.4038,0.4125,0.4137,0.4204,0.4097,0.4098,0.4099,0,0.3778,0.3804,0.3871,0.3893,0.3907,0.3938,0.3968,0.3996,0.4019,0.4023,0.4044,0.4039,0.4081,0.405,0.4108,0.4077,0.4095,0.4103,0.4106,0.411,0.4076,0.4132,0.4226,0.4236,0.4114,0.4113,0.4112,0,0.3833,0.3885,0.3932,0.3945,0.3972,0.3994,0.4007,0.4028,0.4048,0.4075,0.4088,0.412,0.4137,0.4162,0.4166,0.4143,0.4224,0.4194,0.4229,0.4229,0.4246,0.4245,0.4345,0.4258,0.4257,0.4257,0.4257,0,0.3908,0.395,0.3957,0.3986,0.4033,0.4033,0.4079,0.409,0.4109,0.4141,0.4132,0.4162,0.4166,0.4197,0.42,0.4248,0.4256,0.426,0.4261,0.4261,0.4261,0.4273,0.4269,0.426,0.4259,0.4259,0.4258,0,0.3977,0.3984,0.4034,0.4056,0.4063,0.4096,0.4115,0.4143,0.4151,0.4191,0.42,0.4212,0.4248,0.4255,0.4297,0.43,0.4357,0.4352,0.4349,0.4348,0.4383,0.438,0.4495,0.4511,0.4412,0.4413,0.4414,0,0.4025,0.4057,0.4082,0.4102,0.4116,0.4149,0.4169,0.4171,0.4193,0.4223,0.4248,0.4283,0.4311,0.437,0.4383,0.4416,0.4412,0.445,0.4417,0.4417,0.4414,0.4412,0.4415,0.4457,0.4458,0.4459,0.4459,0,0.4109,0.4111,0.4141,0.4172,0.4197,0.4221,0.4245,0.4262,0.4268,0.4293,0.433,0.4352,0.4396,0.4431,0.4464,0.4478,0.447,0.447,0.448,0.4481,0.4478,0.448,0.4366,0.4467,0.4466,0.4466,0.4465,0.4465,0.4169,0.4197,0.422,0.4253,0.4271,0.4294,0.4321,0.4333,0.4363,0.4399,0.4399,0.4439,0.4463,0.4507,0.4523,0.4555,0.4543,0.4557,0.4561,0.4565,0.4568,0.4472,0.4561,0.4561,0.4561,0.456,0.456,0,0.4253,0.4267,0.4298,0.4332,0.4358,0.4349,0.4374,0.4398,0.4433,0.4456,0.4484,0.4527,0.4562,0.4578,0.4613,0.4636,0.4633,0.4645,0.4643,0.4647,0.4577,0.4565,0.4646,0.4646,0.4646,0.4646,0.4646,0.4646,0.43,0.4347,0.4352,0.4409,0.4422,0.4462,0.4478,0.4499,0.4517,0.4565,0.4594,0.4604,0.4625,0.4661,0.4693,0.4697,0.471,0.4723,0.4726,0.466,0.4651,0.4643,0.4632,0.4726,0.4726,0.4793,0.4794,0.4794]}]]